Location: Góry Miechowskie
(50.3599°N, 20.1803°E)
Time: 02:01:45
(UTC+00:00)

Transit 2A Rocket - Pass Details

Date: 16 September 2024
Orbit: 582 x 908 km, 66.7° (Epoch: 10 October)

Event Time Altitude Azimuth Distance (km) Brightness Sun altitude
Exits shadow 02:14:50 - 304° (NW) 3,198 7.9 -19.3°
Reaches altitude 10° 02:17:13 10° 319° (NW) 2,601 7.6 -19.0°
Maximum altitude 02:20:59 17° 357° (N) 2,148 7.6 -18.4°
Drops below altitude 10° 02:24:40 10° 36° (NE) 2,550 8.7 -17.9°
Sets 02:28:09 0° 57° (ENE) 3,442 10.1 -17.4°
